Location: Asheville, NC
(35.6000°N, 82.5500°W)
Time: 00:22:54
(UTC-04:00)

Vanguard 2 - All Passes

Search period start: 21 June 2018 00:00
Search period end: 01 July 2018 00:00
Orbit: 553 x 2939 km, 32.9° (Epoch: 20 June)

Date Brightness Start Highest point End Pass type
(mag) Time Alt. Az. Time Alt. Az. Time Alt. Az.
21 Jun - 01:45:23 10° S 01:48:22 12° SSE 01:51:00 10° SE visible
21 Jun - 03:50:56 10° SW 03:57:44 30° SSE 04:02:22 10° E visible
21 Jun - 06:00:35 10° WSW 06:06:10 56° S 06:10:15 10° E daylight
21 Jun - 08:10:03 10° W 08:14:10 51° S 08:18:03 10° ESE daylight
21 Jun - 10:19:04 10° WSW 10:22:00 19° SSW 10:25:22 10° SSE daylight
22 Jun - 02:00:22 10° SSW 02:06:37 18° SSE 02:11:21 10° ESE visible
22 Jun - 04:08:31 10° SW 04:15:51 39° SSE 04:20:39 10° E visible
22 Jun - 06:18:42 10° WSW 06:24:14 63° S 06:28:17 10° E daylight
22 Jun - 08:28:13 10° W 08:32:09 41° SSW 08:35:56 10° ESE daylight
22 Jun - 10:38:12 10° SW 10:39:59 12° SSW 10:41:55 10° S daylight
23 Jun - 02:16:50 10° SSW 02:24:50 25° SSE 02:30:23 10° ESE visible
23 Jun - 04:26:22 10° WSW 04:33:56 49° SSE 04:38:47 10° E visible
23 Jun - 06:36:53 10° W 06:42:17 64° S 06:46:17 10° ESE daylight
23 Jun - 08:46:28 10° W 08:50:06 30° SSW 08:53:40 10° SE daylight
24 Jun - 00:27:52 10° S 00:33:01 13° SSE 00:37:22 10° SE night (unlit)
24 Jun - 02:33:56 10° SW 02:43:00 33° SSE 02:48:56 10° E visible
24 Jun - 04:44:25 10° WSW 04:52:01 59° S 04:56:50 10° E visible
24 Jun - 06:55:05 10° W 07:00:18 59° S 07:04:17 10° ESE daylight
24 Jun - 09:04:54 10° WSW 09:08:01 21° SSW 09:11:06 10° SSE daylight
25 Jun - 00:42:58 10° SSW 00:51:17 20° SSE 00:57:32 10° ESE visible
25 Jun - 02:51:26 10° SW 03:01:10 42° SSE 03:07:13 10° E visible
25 Jun - 05:02:36 10° WSW 05:10:06 66° S 05:14:52 10° E visible
25 Jun - 07:13:19 10° W 07:18:19 49° SSW 07:22:11 10° ESE daylight
25 Jun - 09:23:49 10° WSW 09:25:53 14° SSW 09:27:57 10° S daylight
26 Jun - 00:59:18 10° SSW 01:09:32 27° SSE 01:16:37 10° E visible
26 Jun - 03:09:15 10° WSW 03:19:19 52° SSE 03:25:23 10° E visible
26 Jun - 05:20:51 10° W 05:28:11 69° S 05:32:52 10° E visible
26 Jun - 07:31:35 10° W 07:36:14 38° SSW 07:39:58 10° SE daylight
26 Jun - 23:10:31 10° S 23:17:09 14° SSE 23:22:46 10° ESE visible
27 Jun - 01:16:16 10° SW 01:27:44 35° SSE 01:35:14 10° E visible
27 Jun - 03:27:18 10° WSW 03:37:27 61° S 03:43:28 10° E visible
27 Jun - 05:39:09 10° W 05:46:15 67° S 05:50:51 10° ESE visible
27 Jun - 07:49:57 10° W 07:54:07 27° SSW 07:57:34 10° SE daylight
27 Jun - 23:25:24 10° S 23:35:23 21° SSE 23:43:07 10° ESE visible
28 Jun - 01:33:39 10° SW 01:45:56 44° SSE 01:53:35 10° E visible
28 Jun - 03:45:30 10° WSW 03:55:34 68° S 04:01:30 10° E visible
28 Jun - 05:57:26 10° W 06:04:17 60° SSW 06:08:48 10° ESE daylight
28 Jun - 08:08:35 10° WSW 08:11:54 19° SSW 08:14:47 10° SSE daylight
28 Jun - 23:41:32 10° SSW 23:53:36 28° SSE 00:02:21 10° E visible
29 Jun - 01:51:24 10° SW 02:04:06 53° SSE 02:11:47 10° E visible
29 Jun - 04:03:48 10° W 04:13:42 72° S 04:19:31 10° E visible
29 Jun - 06:15:45 10° W 06:22:15 50° SSW 06:26:38 10° ESE daylight
29 Jun - 08:27:59 10° WSW 08:29:37 12° SW 08:31:10 10° SSW daylight
29 Jun - 21:53:46 10° SSE 22:00:46 14° SE 22:06:59 10° ESE visible
29 Jun - 23:58:19 10° SSW 00:11:48 36° SSE 00:21:05 10° E visible
30 Jun - 02:09:23 10° WSW 02:22:16 62° SSE 02:29:54 10° E visible
30 Jun - 04:22:10 10° W 04:31:49 73° S 04:37:31 10° E visible
30 Jun - 06:34:07 10° W 06:40:09 39° SSW 06:44:21 10° SE daylight
30 Jun - 22:08:10 10° S 22:18:56 20° SE 22:27:52 10° ESE visible
